Minneapolis Flying Cloud, MN

9:33 PM CST on January 16, 2018 (GMT -0600)
Flying Cloud

Weather History for KFCM - January, 2011

Change the Weather History Date:

Monday, January 10, 2011

  Actual Average Record
Temperature  
Mean Temperature 18 °F -  
Max Temperature 21 °F 22 °F 53 °F (2012)
Min Temperature 14 °F 7 °F -11 °F (1999)
Degree Days  
Heating Degree Days 48    
Moisture  
Dew Point 14 °F    
Average Humidity 83    
Maximum Humidity 93    
Minimum Humidity 64    
Precipitation  
Precipitation 0.05 in - - ()
Sea Level Pressure  
Sea Level Pressure 30.36 in    
Wind  
Wind Speed 6 mph (ENE)    
Max Wind Speed 9 mph    
Max Gust Speed -    
Visibility 3 miles    
Events Snow    
Averages and records for this station are not official NWS values.
T = Trace of Precipitation, MM = Missing Value Source: NWS Daily Summary

Daily Weather History Graph

Daily Weather History Graph

Search for Another Location

Airport or City:

Trip Planner

Search our weather history database for the weather conditions in past years. The results will help you decide how hot, cold, wet, or windy it might be!

Date:

Astronomy

Jan. 10, 2011 Rise Set
Actual Time 7:50 AM CST 4:52 PM CST
Civil Twilight 7:17 AM CST 5:25 PM CST
Nautical Twilight 6:40 AM CST 6:02 PM CST
Astronomical Twilight 6:05 AM CST 6:37 PM CST
Moon 10:28 AM CST (1/10) 11:39 PM CST (1/10)
Length of Visible Light 10h 08m
Length of Day
9h 02m
Waxing Crescent, 34% of the Moon is Illuminated
Jan 10
Waxing Crescent
Jan 12
First Quarter
Jan 19
Full
Jan 26
Last Quarter
Feb 2
New

Hourly Weather History & Observations

Time (CST) Temp. Windchill Dew Point Humidity Pressure Visibility Wind Dir Wind Speed Gust Speed Precip Events Conditions
12:53 AM 14.0 °F 5.1 °F 3.9 °F 64% 30.40 in 10.0 mi East 5.8 mph - N/A   Overcast
1:53 AM 14.0 °F 6.5 °F 5.0 °F 67% 30.41 in 10.0 mi East 4.6 mph - N/A   Overcast
2:53 AM 14.0 °F 6.5 °F 6.1 °F 71% 30.43 in 10.0 mi East 4.6 mph - N/A   Overcast
3:53 AM 15.1 °F - 6.1 °F 68% 30.43 in 10.0 mi Calm Calm - N/A   Overcast
4:53 AM 15.1 °F - 7.0 °F 70% 30.43 in 10.0 mi Calm Calm - N/A   Overcast
5:50 AM 15.8 °F 7.2 °F 8.6 °F 73% 30.37 in 3.0 mi ENE 5.8 mph - 0.00 in Snow Light Snow
5:53 AM 15.1 °F 7.7 °F 8.1 °F 74% 30.43 in 3.0 mi ENE 4.6 mph - 0.00 in Snow Light Snow
6:00 AM 15.8 °F 8.6 °F 8.6 °F 73% 30.37 in 2.0 mi ENE 4.6 mph - 0.00 in Snow Light Snow
6:15 AM 15.8 °F 8.6 °F 8.6 °F 73% 30.37 in 3.0 mi East 4.6 mph - 0.00 in Snow Light Snow
6:17 AM 15.8 °F 8.6 °F 8.6 °F 73% 30.37 in 2.5 mi ENE 4.6 mph - 0.00 in Snow Light Snow
6:48 AM 15.8 °F 7.2 °F 10.4 °F 79% 30.37 in 2.0 mi East 5.8 mph - 0.00 in Snow Light Snow
6:53 AM 15.1 °F 5.2 °F 10.0 °F 80% 30.42 in 2.0 mi ENE 6.9 mph - 0.00 in Snow Light Snow
7:07 AM 15.8 °F 7.2 °F 10.4 °F 79% 30.36 in 3.0 mi East 5.8 mph - 0.00 in Snow Light Snow
7:21 AM 15.8 °F 7.2 °F 10.4 °F 79% 30.36 in 2.5 mi East 5.8 mph - 0.00 in Snow Light Snow
7:53 AM 15.1 °F 6.4 °F 10.9 °F 84% 30.42 in 2.5 mi East 5.8 mph - 0.00 in Snow Light Snow
8:27 AM 15.8 °F 6.1 °F 10.4 °F 79% 30.36 in 3.0 mi ENE 6.9 mph - 0.00 in Snow Light Snow
8:53 AM 16.0 °F 6.3 °F 10.9 °F 81% 30.43 in 2.5 mi ENE 6.9 mph - 0.00 in Snow Light Snow
9:53 AM 16.0 °F 7.4 °F 12.0 °F 84% 30.43 in 2.5 mi ENE 5.8 mph - 0.00 in Snow Light Snow
10:05 AM 17.6 °F 7.3 °F 12.2 °F 79% 30.37 in 1.2 mi ENE 8.1 mph - 0.00 in Snow Light Snow
10:23 AM 17.6 °F 7.3 °F 12.2 °F 79% 30.37 in 0.8 mi ENE 8.1 mph - 0.00 in Snow Light Snow
10:31 AM 17.6 °F 8.2 °F 12.2 °F 79% 30.37 in 1.8 mi ENE 6.9 mph - 0.00 in Snow Light Snow
10:53 AM 18.0 °F 8.7 °F 12.9 °F 81% 30.42 in 1.8 mi ENE 6.9 mph - 0.00 in Snow Light Snow
11:27 AM 19.4 °F 10.4 °F 14.0 °F 80% 30.35 in 1.8 mi ENE 6.9 mph - 0.00 in Snow Light Snow
11:53 AM 19.0 °F 11.1 °F 14.0 °F 81% 30.40 in 1.0 mi ENE 5.8 mph - 0.01 in Snow Light Snow
12:00 PM 19.4 °F 12.8 °F 15.8 °F 86% 30.34 in 1.0 mi East 4.6 mph - 0.00 in Snow Light Snow
12:53 PM 19.9 °F 12.1 °F 15.1 °F 81% 30.38 in 1.0 mi ENE 5.8 mph - 0.01 in Snow Light Snow
1:53 PM 21.0 °F 13.4 °F 17.1 °F 85% 30.37 in 1.0 mi ENE 5.8 mph - 0.01 in Snow Light Snow
2:53 PM 21.0 °F 12.4 °F 17.1 °F 85% 30.37 in 0.8 mi ENE 6.9 mph - 0.00 in Snow Light Snow
3:04 PM 21.2 °F 13.6 °F 17.6 °F 86% 30.32 in 1.2 mi ENE 5.8 mph - 0.00 in Snow Light Snow
3:17 PM 21.2 °F 12.6 °F 17.6 °F 86% 30.32 in 0.8 mi ENE 6.9 mph - 0.00 in Snow Light Snow
3:27 PM 21.2 °F 12.6 °F 17.6 °F 86% 30.33 in 1.8 mi East 6.9 mph - 0.00 in Snow Light Snow
3:34 PM 21.2 °F 11.7 °F 17.6 °F 86% 30.33 in 2.5 mi ENE 8.1 mph - 0.00 in Snow Light Snow
3:53 PM 21.0 °F 13.4 °F 17.1 °F 85% 30.38 in 1.8 mi ENE 5.8 mph - 0.00 in Snow Light Snow
4:06 PM 21.2 °F 13.6 °F 17.6 °F 86% 30.33 in 1.5 mi ENE 5.8 mph - 0.00 in Snow Light Snow
4:21 PM 21.2 °F 13.6 °F 17.6 °F 86% 30.33 in 2.0 mi ENE 5.8 mph - 0.00 in Snow Light Snow
4:45 PM 21.2 °F 13.6 °F 17.6 °F 86% 30.33 in 1.5 mi ENE 5.8 mph - 0.00 in Snow Light Snow
4:53 PM 21.0 °F 11.4 °F 17.1 °F 85% 30.38 in 1.5 mi ENE 8.1 mph - 0.00 in Snow Light Snow
5:12 PM 21.2 °F 10.9 °F 17.6 °F 86% 30.33 in 2.0 mi ENE 9.2 mph - 0.00 in Snow Light Snow
5:38 PM 21.2 °F 11.7 °F 17.6 °F 86% 30.33 in 2.0 mi ENE 8.1 mph - 0.00 in Snow Light Snow
5:53 PM 21.0 °F 10.6 °F 17.1 °F 85% 30.38 in 3.0 mi ENE 9.2 mph - 0.00 in Snow Light Snow
6:21 PM 19.4 °F 10.4 °F 17.6 °F 93% 30.32 in 2.5 mi NE 6.9 mph - 0.00 in Snow Light Snow
6:30 PM 21.2 °F 12.6 °F 17.6 °F 86% 30.32 in 3.0 mi ENE 6.9 mph - 0.00 in Snow Light Snow
6:38 PM 19.4 °F 8.6 °F 15.8 °F 86% 30.32 in 2.0 mi ENE 9.2 mph - 0.00 in Snow Light Snow
6:48 PM 19.4 °F 9.5 °F 15.8 °F 86% 30.32 in 1.5 mi ENE 8.1 mph - 0.00 in Snow Light Snow
6:53 PM 19.9 °F 10.1 °F 16.0 °F 85% 30.38 in 2.0 mi ENE 8.1 mph - 0.00 in Snow Light Snow
7:00 PM 19.4 °F 10.4 °F 15.8 °F 86% 30.32 in 3.0 mi ENE 6.9 mph - 0.00 in Snow Light Snow
7:53 PM 19.0 °F 11.1 °F 16.0 °F 88% 30.38 in 4.0 mi ENE 5.8 mph - 0.00 in Snow Light Snow
8:26 PM 19.4 °F 10.4 °F 15.8 °F 86% 30.32 in 2.5 mi ENE 6.9 mph - 0.00 in Snow Light Snow
8:42 PM 19.4 °F 11.5 °F 15.8 °F 86% 30.32 in 3.0 mi ENE 5.8 mph - 0.00 in Snow Light Snow
8:49 PM 19.4 °F 11.5 °F 15.8 °F 86% 30.31 in 2.5 mi ENE 5.8 mph - 0.00 in Snow Light Snow
8:53 PM 19.9 °F 11.1 °F 16.0 °F 85% 30.37 in 1.8 mi ENE 6.9 mph - 0.00 in Snow Light Snow
9:32 PM 19.4 °F 11.5 °F 17.6 °F 93% 30.31 in 2.5 mi ENE 5.8 mph - 0.01 in Snow Light Snow
9:45 PM 19.4 °F 10.4 °F 17.6 °F 93% 30.31 in 3.0 mi ENE 6.9 mph - 0.01 in Snow Light Snow
9:53 PM 19.9 °F 11.1 °F 17.1 °F 89% 30.36 in 2.5 mi ENE 6.9 mph - 0.01 in Snow Light Snow
10:04 PM 19.4 °F 12.8 °F 17.6 °F 93% 30.31 in 1.5 mi ENE 4.6 mph - 0.00 in Snow Light Snow
10:53 PM 19.9 °F 11.1 °F 17.1 °F 89% 30.36 in 1.5 mi ENE 6.9 mph - 0.01 in Snow Light Snow
11:10 PM 19.4 °F 10.4 °F 17.6 °F 93% 30.30 in 2.0 mi ENE 6.9 mph - 0.00 in Snow Light Snow
11:30 PM 19.4 °F 11.5 °F 17.6 °F 93% 30.30 in 2.5 mi NE 5.8 mph - 0.00 in Snow Light Snow
11:53 PM 19.9 °F 12.1 °F 17.1 °F 89% 30.34 in 2.0 mi ENE 5.8 mph - 0.00 in Snow Light Snow